Flag for U.S.A. Weather past 2 weeks in Paramus, New Jersey, U.S.A.

Now
59 °F

Overcast.


Feels Like: 56 °F
Forecast: 49 / 61 °F
Wind: 15 mph from Northwest

Location: Teterboro Airport

Current Time: Oct 24, 2014 at 1:22:45 PM

Latest Report: Oct 24, 2014 at 12:51 PM


Visibility: 10 mi

Pressure: 29.78 "Hg

Humidity: 56%

Dew point: 43 °F

Location of ParamusLocation

Historic Weather in Paramus — Graph

°F

Paramus temperature yesterday

Maximum temperature yesterday: 54 °F (at 4:51 PM)
Minimum temperature yesterday: 51 °F (at 7:51 AM)
Average temperature yesterday: 52 °F

Past Weeks' High & Low Weather Summary

 TemperatureHumidityPressure
High81 °F (Oct 15, 11:51 AM)94% (Oct 14, 2:58 AM)30.33 "Hg (Oct 14, 2:58 AM)
Low38 °F (Oct 20, 2:51 AM)27% (Oct 9, 12:51 PM)29.56 "Hg (Oct 18, 1:51 PM)
Average59 °F67%29.94 "Hg
* Reported Oct 9 11:51 AM — Oct 24 11:51 AM, Paramus, Weather by CustomWeather, © 2014

Note: Actual official high and low records may vary slightly from our data, if they occured in-between our weather recording intervals... More about our weather records

Advertising

Paramus weather history for previous 24 hours

 ConditionsComfort  
Time TempWeatherWind HumidityBarometerVisibility
11:51 AM
Oct 24
57 °FOvercast.9 mph58%29.81 "Hg10 mi
10:51 AM56 °FPassing clouds.14 mph60%29.81 "Hg10 mi
9:51 AM54 °FOvercast.13 mph64%29.82 "Hg10 mi
9:00 AM54 °FMore clouds than sun.13 mph67%29.81 "Hg10 mi
7:51 AM52 °FPassing clouds.9 mph72%29.80 "Hg10 mi
6:51 AM50 °FPassing clouds.7 mph74%29.80 "Hg10 mi
5:51 AM50 °FOvercast.6 mph74%29.79 "Hg10 mi
4:51 AM51 °FPassing clouds.8 mph71%29.79 "Hg10 mi
3:51 AM51 °FPassing clouds.5 mph71%29.78 "Hg10 mi
2:51 AM52 °FMostly cloudy.5 mph69%29.77 "Hg10 mi
1:51 AM52 °FOvercast.6 mph69%29.76 "Hg10 mi
12:51 AM52 °FOvercast.8 mph69%29.76 "Hg10 mi
11:51 PM
Oct 23
53 °FOvercast.10 mph69%29.77 "Hg10 mi
10:51 PM53 °FOvercast.10 mph69%29.78 "Hg10 mi
9:51 PM53 °FOvercast.9 mph72%29.78 "Hg10 mi
8:51 PM53 °FOvercast.7 mph74%29.77 "Hg10 mi
7:51 PM53 °FMostly cloudy.10 mph77%29.76 "Hg10 mi
6:51 PM52 °FMostly cloudy.10 mph80%29.75 "Hg10 mi
5:51 PM53 °FMostly cloudy.10 mph80%29.73 "Hg10 mi
4:51 PM54 °FOvercast.14 mph74%29.71 "Hg10 mi
3:51 PM53 °FOvercast.12 mph80%29.69 "Hg10 mi
2:51 PM52 °FLight rain. Overcast.10 mph83%29.70 "Hg5 mi
1:51 PM52 °FLight rain. Overcast.10 mph83%29.70 "Hg10 mi
Weather by CustomWeather, © 2014

See weather overviewHow to use our weather pages